Location: *
(50.3194°N, 7.1067°E)
Time: 15:23:57
(UTC+00:00)

Resurs 01 Rocket - Pass Details

Date: 22 September 2019
Orbit: 635 x 644 km, 98.0° (Epoch: 17 October)

Event Time Altitude Azimuth Distance (km) Brightness Sun altitude
Exits shadow 19:02:49 26° 109° (ESE) 1,262 2.5 -15.3°
Maximum altitude 19:04:29 36° 66° (ENE) 1,032 2.3 -15.5°
Drops below altitude 10° 19:08:33 10° 1° (N) 2,052 4.5 -16.1°
Sets 19:10:54 0° 353° (N) 2,967 5.5 -16.5°
